Marion, IN

7:21 AM EDT on April 27, 2017 (GMT -0400)
Marion Municipal

Weather History for KMZZ - September, 2013

Change the Weather History Date:

Sunday, September 15, 2013

  Actual Average (KMIE) Record (KMIE)
Temperature  
Mean Temperature 59 °F -  
Max Temperature 74 °F 78 °F 93 °F (1991)
Min Temperature 44 °F 55 °F 40 °F (2011)
Degree Days  
Heating Degree Days 6    
Growing Degree Days 9 (Base 50)    
Moisture  
Dew Point 46 °F    
Average Humidity 70    
Maximum Humidity 95    
Minimum Humidity 29    
Precipitation  
Precipitation 0.10 in - - ()
Sea Level Pressure  
Sea Level Pressure 30.10 in    
Wind  
Wind Speed 3 mph (South)    
Max Wind Speed 13 mph    
Max Gust Speed 17 mph    
Visibility 9 miles    
Events Rain    
Averages and records for this station are not official NWS values.
T = Trace of Precipitation, MM = Missing Value Source: NWS Daily Summary

Daily Weather History Graph

Daily Weather History Graph

Search for Another Location

Airport or City:

Trip Planner

Search our weather history database for the weather conditions in past years. The results will help you decide how hot, cold, wet, or windy it might be!

Date:

Astronomy

Sep. 15, 2013 Rise Set
Actual Time 7:23 AM EDT 7:51 PM EDT
Civil Twilight 6:56 AM EDT 8:18 PM EDT
Nautical Twilight 6:24 AM EDT 8:50 PM EDT
Astronomical Twilight 5:50 AM EDT 9:23 PM EDT
Moon 5:18 PM EDT (9/15) 3:00 AM EDT (9/15)
Length of Visible Light 13h 22m
Length of Day
12h 27m
Waxing Gibbous, 82% of the Moon is Illuminated
Sep 15
Waxing Gibbous
Sep 19
Full
Sep 26
Last Quarter
Oct 4
New
Oct 11
First Quarter

Hourly Weather History & Observations

Time (EDT) Temp. Windchill Dew Point Humidity Pressure Visibility Wind Dir Wind Speed Gust Speed Precip Events Conditions
12:15 AM 47.5 °F - 42.4 °F 83% 30.11 in 10.0 mi Calm Calm - N/A   Clear
12:35 AM 47.5 °F - 43.2 °F 85% 30.11 in 10.0 mi Calm Calm - N/A   Clear
12:55 AM 47.7 °F - 42.4 °F 82% 30.10 in 10.0 mi ESE 3.5 mph - N/A   Clear
1:15 AM 45.9 °F - 42.4 °F 88% 30.10 in 10.0 mi Calm Calm - N/A   Clear
1:35 AM 46.8 °F - 42.4 °F 85% 30.10 in 10.0 mi Calm Calm - N/A   Clear
1:55 AM 45.3 °F - 41.5 °F 87% 30.10 in 10.0 mi Calm Calm - N/A   Clear
2:15 AM 44.8 °F 42.4 °F 41.5 °F 88% 30.11 in 10.0 mi SSE 4.6 mph - N/A   Clear
2:35 AM 44.4 °F 42.0 °F 41.2 °F 88% 30.10 in 10.0 mi SSE 4.6 mph - N/A   Clear
2:55 AM 44.6 °F 41.4 °F 41.2 °F 88% 30.10 in 10.0 mi SSE 5.8 mph - N/A   Clear
3:15 AM 46.0 °F 43.9 °F 41.0 °F 83% 30.10 in 10.0 mi South 4.6 mph - N/A   Clear
3:35 AM 45.0 °F - 40.5 °F 84% 30.10 in 10.0 mi Calm Calm - N/A   Clear
3:55 AM 44.8 °F - 40.6 °F 85% 30.11 in 10.0 mi Calm Calm - N/A   Clear
4:15 AM 45.1 °F - 40.3 °F 83% 30.12 in 10.0 mi Calm Calm - N/A   Clear
4:35 AM 44.4 °F 42.9 °F 40.5 °F 86% 30.11 in 10.0 mi SSE 3.5 mph - N/A   Clear
4:55 AM 45.3 °F 43.0 °F 40.3 °F 83% 30.11 in 10.0 mi SSE 4.6 mph - N/A   Clear
5:15 AM 45.1 °F 42.8 °F 40.3 °F 83% 30.11 in 10.0 mi South 4.6 mph - N/A   Clear
5:35 AM 45.5 °F 44.2 °F 40.8 °F 84% 30.11 in 10.0 mi SSE 3.5 mph - N/A   Clear
5:55 AM 45.5 °F - 41.0 °F 84% 30.11 in 10.0 mi Calm Calm - N/A   Clear
6:15 AM 45.1 °F - 41.2 °F 86% 30.11 in 10.0 mi Calm Calm - N/A   Clear
6:35 AM 45.1 °F - 41.9 °F 88% 30.12 in 10.0 mi Calm Calm - N/A   Clear
6:55 AM 45.7 °F - 41.9 °F 87% 30.12 in 10.0 mi Calm Calm - N/A   Clear
7:15 AM 45.5 °F - 41.7 °F 87% 30.13 in 10.0 mi Calm Calm - N/A   Clear
7:35 AM 45.5 °F - 41.7 °F 87% 30.13 in 7.0 mi Calm Calm - N/A   Clear
7:55 AM 45.7 °F - 41.9 °F 87% 30.14 in 10.0 mi Calm Calm - N/A   Clear
8:15 AM 46.2 °F - 43.3 °F 90% 30.14 in 7.0 mi Calm Calm - N/A   Clear
8:35 AM 48.4 °F - 44.6 °F 87% 30.14 in 7.0 mi Calm Calm - N/A   Clear
8:55 AM 50.4 °F - 46.0 °F 85% 30.14 in 10.0 mi Calm Calm - N/A   Clear
9:15 AM 52.0 °F - 46.9 °F 83% 30.14 in 10.0 mi SSW 4.6 mph - N/A   Clear
9:35 AM 53.2 °F - 47.5 °F 81% 30.14 in 7.0 mi South 4.6 mph - N/A   Clear
9:55 AM 55.2 °F - 48.4 °F 78% 30.14 in 10.0 mi SSW 5.8 mph - N/A   Clear
10:15 AM 57.4 °F - 48.0 °F 71% 30.14 in 10.0 mi SSW 6.9 mph - N/A   Clear
10:35 AM 59.9 °F - 47.7 °F 64% 30.13 in 7.0 mi SSW 6.9 mph - N/A   Clear
10:55 AM 63.0 °F - 46.9 °F 56% 30.13 in 10.0 mi SSW 9.2 mph - N/A   Clear
11:15 AM 64.6 °F - 46.2 °F 51% 30.13 in 10.0 mi SW 9.2 mph - N/A   Clear
11:35 AM 67.1 °F - 45.3 °F 45% 30.12 in 10.0 mi SSW 8.1 mph - N/A   Clear
11:55 AM 68.5 °F - 43.9 °F 41% 30.11 in 10.0 mi SW 12.7 mph - N/A   Clear
12:15 PM 69.3 °F - 42.6 °F 38% 30.11 in 10.0 mi SSW 6.9 mph 17.3 mph N/A   Clear
12:35 PM 70.0 °F - 42.6 °F 37% 30.10 in 10.0 mi SSW 11.5 mph - N/A   Clear
12:55 PM 70.9 °F - 42.3 °F 36% 30.09 in 10.0 mi SW 9.2 mph 16.1 mph N/A   Clear
1:15 PM 71.2 °F - 41.7 °F 34% 30.08 in 10.0 mi SW 10.4 mph - N/A   Clear
1:35 PM 71.1 °F - 41.4 °F 34% 30.08 in 10.0 mi WSW 8.1 mph - N/A   Clear
1:55 PM 72.1 °F - 40.5 °F 32% 30.08 in 10.0 mi SW 5.8 mph - N/A   Clear
2:15 PM 72.3 °F - 41.0 °F 32% 30.07 in 7.0 mi SW 6.9 mph - N/A   Scattered Clouds
2:35 PM 72.3 °F - 41.2 °F 32% 30.07 in 10.0 mi SW 4.6 mph - N/A   Mostly Cloudy
2:55 PM 71.8 °F - 40.5 °F 32% 30.06 in 10.0 mi SW 6.9 mph - N/A   Overcast
3:15 PM 72.0 °F - 40.5 °F 32% 30.04 in 10.0 mi SW 9.2 mph - N/A   Mostly Cloudy
3:35 PM 73.8 °F - 40.5 °F 30% 30.03 in 10.0 mi SW 9.2 mph - N/A   Scattered Clouds
3:55 PM 74.7 °F - 40.1 °F 29% 30.03 in 10.0 mi SW 9.2 mph - N/A   Clear
4:15 PM 73.6 °F - 41.4 °F 31% 30.02 in 10.0 mi South 6.9 mph - N/A   Clear
4:35 PM 73.8 °F - 40.8 °F 30% 30.02 in 10.0 mi SSW 10.4 mph - N/A   Scattered Clouds
4:55 PM 74.3 °F - 40.6 °F 30% 30.02 in 10.0 mi SSW 8.1 mph - N/A   Clear
5:15 PM 74.1 °F - 41.4 °F 31% 30.02 in 7.0 mi WSW 10.4 mph - N/A   Mostly Cloudy
5:35 PM 73.4 °F - 41.0 °F 31% 30.05 in 10.0 mi West 9.2 mph - N/A   Overcast
5:55 PM 72.3 °F - 41.5 °F 33% 30.04 in 7.0 mi WSW 6.9 mph - N/A Rain Rain
6:15 PM 66.7 °F - 50.7 °F 56% 30.04 in 7.0 mi NW 4.6 mph - 0.01 in Rain Light Rain
6:35 PM 64.4 °F - 53.1 °F 67% 30.07 in 7.0 mi NNW 4.6 mph - 0.02 in   Overcast
6:55 PM 62.8 °F - 54.1 °F 73% 30.09 in 3.0 mi NW 6.9 mph - 0.02 in Rain Rain
7:15 PM 60.6 °F - 54.1 °F 79% 30.10 in 5.0 mi Calm Calm - N/A   Haze
7:35 PM 59.4 °F - 54.9 °F 85% 30.08 in 5.0 mi NNE 3.5 mph - 0.01 in Rain Rain
7:55 PM 59.0 °F - 56.1 °F 90% 30.08 in 2.5 mi Calm Calm - 0.02 in Rain Rain
8:15 PM 58.8 °F - 56.3 °F 91% 30.08 in 10.0 mi Calm Calm - 0.01 in Rain Light Rain
8:35 PM 58.6 °F - 56.5 °F 93% 30.08 in 7.0 mi Calm Calm - 0.01 in Rain Light Rain
8:55 PM 58.5 °F - 56.1 °F 92% 30.09 in 7.0 mi ENE 3.5 mph - 0.02 in   Overcast
9:15 PM 58.1 °F - 55.9 °F 93% 30.09 in 7.0 mi ENE 3.5 mph - N/A Rain Light Rain
9:35 PM 58.1 °F - 55.9 °F 93% 30.10 in 7.0 mi ENE 5.8 mph - 0.01 in   Overcast
9:55 PM 57.7 °F - 55.8 °F 93% 30.11 in 7.0 mi East 6.9 mph - 0.01 in   Overcast
10:15 PM 57.6 °F - 55.4 °F 92% 30.12 in 10.0 mi ENE 5.8 mph - 0.01 in Rain Light Rain
10:35 PM 57.2 °F - 55.4 °F 94% 30.12 in 10.0 mi ENE 6.9 mph - 0.01 in   Overcast
10:55 PM 57.0 °F - 55.2 °F 94% 30.11 in 7.0 mi East 6.9 mph - 0.02 in   Overcast
11:15 PM 56.7 °F - 55.0 °F 94% 30.11 in 7.0 mi East 5.8 mph - N/A   Overcast
11:35 PM 56.7 °F - 55.0 °F 94% 30.13 in 7.0 mi East 6.9 mph - N/A   Overcast
11:55 PM 56.5 °F - 55.0 °F 95% 30.12 in 4.0 mi East 5.8 mph - 0.01 in Rain Rain